STARLINK-4267, 52864

Orbit data source: Space-Track

STARLINK-4267, 52864 is a payload satellite owned by SpaceX/Seattle (US) in LEO that was launched on Fri, 17 Jun 2022 UTC via an FALCON 9 launch vehicle from the Air Force Eastern Test Range (AFETR). Payload-class satellites include a variety of spacecraft equipped with specific instruments for various scientific and technological missions. These include communications satellites like Starlink; space stations such as the ISS; scientific satellites like the Hubble; Earth observation satellites from companies like Planet Labs, Umbra, and HawkEye 360; GPS; miniature CubeSats for education and research; and military/defense satellites.

Loading next visibility...
Identifier
52864, 2022-062AL
Orbit
LEO
Country
Flag of USUS
Related business
Manufacturer
SpaceX/Seattle
Mission
Operational Commercial Communications
Bus & Motor
STARLINK, Unknown motor
Mass
297 kg wet, ~275 kg dry
Launch date (UTC)
2022-06-17 (3 years ago)
Launch vehicle
FALCON 9
Launch site
Air Force Eastern Test Range (AFETR)
Object type
Payload
Rocket body
Debris
Shape & HBR
Box + 1 Pan, 10.1 m
Radar Cross Section
13.562 m², Medium (>0.1 m² and < 1m²)

Expand to show TLE details & history
Last TLE update: 19 hours ago

TLE from 19 hours ago
0 STARLINK-4267
1 52864U 22062AL  25348.88278015  .00001974  00000-0  14205-3 0  9994
2 52864  53.2180  44.8353 0001345  80.6871 279.4273 15.08840325193122
Epoch: 2025-12-14T21:11Z
TLE epoch observation values (Epoch: 2025-12-14T21:11:12.204Z)
Latitude
-0.00006°
Longitude
3.24509°
Altitude
540.488 km
Speed
7.593 km/s
True Right ascension
02h 59m 20s
True Declination
0° 00' 00"
Sunlit
Object was in full shadow at epoch
Visualization orbit readout
Latitude
Unknown
Longitude
Unknown
Altitude
Unknown
Speed
Unknown
Apparent Right ascension
Unknown
Apparent Declination
Unknown
Sunlit
N/A
Visualization observer readout
Local Sidereal Time
15:11:09
Azimuth
Unknown
Elevation
Unknown
Doppler factor
Unknown
Orbital elements
Apogee altitude
540.918 km
Perigee altitude
539.057 km
Semi-major axis
6,918.124 km
Eccentricity
0.00013
Inclination
53.218°
RAAN
44.8353°
Arg. of periapsis
80.6871°
True anomaly
279.4121°
Mean anomaly
279.4273°
Eccentric anomaly
279.4197°
Mean motion
3.7719 °/min
Orbital period
95.44 mins
BSTAR
0.00014205
Loading maneuver chart data...
Computing Atmospheric mass density...
Loading historical data...
Loading historical data...
Loading historical data...
Loading historical data...
Loading historical data...
Loading historical data...
Loading historical data...

Documentation

Showing up to 5 results
|